Temp
75 75 75 74 73 73 73 74 74 75 75 75 76 76 76 76 76 76 76 73 71 68 69 69 70 70 66 63 62 61 61 62 58 60 60 61 60 59 61 62 63 63 64
75 75 74 74 73 73 73 73 74 74 74 75 75 75 75 76 77 76 76 71 70 67 68 69 68 68 62 59 60 59 59 59 60 57 57 60 60 59 59 59 61 64 62
75 75 74 73 73 73 73 73 74 74 74 75 75 75 76 76 77 76 74 70 68 68 70 70 68 64 60 60 59 59 59 59 59 58 58 58 59 60 59 59 58 59 62
75 74 73 74 74 74 75 74 74 75 75 75 75 76 76 77 77 76 71 69 69 68 69 69 67 64 60 59 58 57 57 58 57 57 57 56 56 59 57 55 56 59 57
73 74 74 74 75 74 74 74 75 75 76 76 76 77 77 77 76 72 71 69 67 65 66 66 65 65 63 62 59 57 57 58 58 57 56 56 56 56 54 56 53 55 56
74 74 74 73 73 73 73 73 74 75 75 76 76 77 77 78 65 66 69 67 65 65 63 64 65 65 64 63 62 61 60 59 56 57 54 54 54 53 55 54 52 51 51
74 74 74 73 74 74 74 74 74 74 75 76 76 77 77 69 63 64 66 67 65 64 63 63 65 65 62 62 62 62 62 61 60 58 55 54 53 53 51 53 51 50 48
74 73 73 73 74 73 74 74 74 75 75 76 77 77 71 66 61 62 65 66 65 63 63 63 61 60 60 60 60 60 60 60 60 61 58 56 56 56 53 52 51 50 52
73 73 74 74 74 73 74 74 74 75 76 76 76 72 68 65 59 60 65 66 63 62 62 62 61 60 59 58 60 59 58 58 59 58 59 57 57 56 55 57 53 54 53
74 74 75 75 74 74 75 74 75 76 76 75 73 71 65 64 58 59 65 66 60 60 59 61 60 60 56 56 60 58 59 57 59 59 59 59 57 56 55 53 53 51 53
74 74 74 75 74 75 74 75 76 75 73 73 70 69 68 65 61 57 59 65 62 60 60 59 61 55 53 52 54 59 59 57 57 58 59 60 59 57 57 57 54 54 52
72 73 73 74 76 75 74 75 75 73 72 70 68 65 66 65 59 56 57 58 59 60 59 59 59 52 51 51 55 52 52 56 59 59 60 59 57 57 57 55 55 56 57
72 72 72 73 75 75 75 75 73 73 71 69 67 64 61 61 60 53 54 55 56 58 59 57 52 50 50 52 52 52 54 60 60 60 59 57 56 55 56 55 56 55 57
73 73 73 74 74 75 76 76 74 72 71 69 68 64 62 61 59 59 60 59 57 58 57 58 56 56 54 56 58 58 60 61 60 59 58 57 58 58 57 56 55 55 56
74 74 75 75 76 75 73 73 75 76 72 71 70 68 64 62 61 57 57 59 59 56 55 58 59 59 59 59 58 59 60 60 59 58 58 57 57 58 56 56 55 55 54
73 74 76 77 76 69 67 66 53 59 57 54 55 66 69 60 51 49 48 49 48 49 58 59 58 59 60 59 59 58 59 59 59 58 58 58 57 57 58 57 56 54 53
74 76 76 73 71 69 70 71 66 56 48 47 50 51 55 53 48 47 46 46 47 52 59 59 59 59 59 59 60 61 60 59 57 59 58 57 57 57 59 57 57 56 55
75 63 76 74 72 71 72 73 71 68 66 61 51 51 47 47 46 45 44 49 57 58 61 60 59 59 59 59 59 60 59 58 59 58 58 59 59 58 58 58 57 56 56
74 74 75 74 73 71 73 73 72 71 68 63 58 51 47 43 45 44 48 63 62 62 60 60 61 60 60 60 60 59 59 59 59 59 58 59 59 59 56 58 58 51 54
73 67 68 74 72 73 71 71 70 69 66 62 63 63 51 51 54 55 61 62 63 64 62 62 61 61 60 60 59 59 59 58 58 59 59 59 59 60 59 59 60 59 58
73 72 66 73 72 72 71 71 70 69 67 64 63 60 52 61 60 59 61 61 63 63 62 63 63 62 61 60 60 59 61 61 60 60 60 59 59 60 59 59 59 60 59
71 73 71 71 71 71 71 71 69 69 67 66 64 54 47 65 62 62 63 63 64 63 64 62 63 63 63 62 61 62 62 62 60 61 60 61 60 60 60 60 60 59 59
67 70 71 71 71 66 68 71 69 68 67 67 62 57 57 65 63 64 64 65 63 62 62 63 63 63 63 63 63 63 64 63 62 62 61 61 60 60 60 60 60 59 59
66 66 69 71 70 69 69 69 67 61 67 66 62 60 61 64 64 65 66 65 63 63 62 63 63 65 62 63 63 64 66 65 63 62 62 62 62 56 61 61 61 61 61
64 65 66 67 70 69 68 68 68 68 66 64 63 61 62 65 66 67 66 64 63 62 62 63 64 64 63 63 64 64 56 41 59 54 63 63 62 60 62 62 61 61 60
60 62 63 64 67 69 69 69 67 67 67 66 63 62 62 64 66 66 65 62 63 63 63 63 64 64 64 64 64 55 42 39 48 45 62 63 62 62 62 62 61 62 60
MSLP
1011.09 1011.72 1012.33 1012.78 1013.27 1013.74 1013.95 1014.33 1014.63 1014.78 1014.90 1014.88 1014.57 1014.71 1014.79 1014.88 1014.65 1014.66 1014.71 1015.21 1015.51 1015.99 1016.28 1016.13 1016.17 1016.08 1016.26 1016.44 1016.62 1016.94 1017.23 1017.47 1018.26 1018.79 1018.87 1018.56 1018.21 1017.68 1017.03 1016.71 1016.39 1016.03 1015.78
1009.98 1010.94 1011.50 1011.96 1012.72 1013.24 1013.44 1013.70 1013.98 1014.26 1014.41 1014.44 1014.57 1014.42 1014.31 1014.43 1014.32 1014.44 1014.65 1015.00 1015.31 1015.71 1015.98 1016.14 1016.24 1016.47 1016.82 1017.00 1017.19 1017.69 1017.90 1017.98 1018.28 1019.04 1019.11 1018.63 1018.21 1017.77 1017.41 1016.85 1016.27 1015.81 1015.70
1009.47 1010.27 1010.98 1011.44 1012.06 1012.55 1012.76 1013.05 1013.39 1013.72 1013.88 1014.20 1014.24 1014.12 1014.04 1013.96 1014.03 1014.22 1014.48 1014.88 1015.20 1015.58 1015.94 1016.12 1016.43 1016.88 1017.30 1017.57 1018.09 1018.26 1018.47 1018.66 1019.04 1019.22 1019.18 1019.04 1018.56 1017.93 1017.39 1016.97 1016.54 1015.97 1015.68
1008.88 1009.68 1010.26 1010.77 1011.14 1011.74 1012.06 1012.44 1012.84 1013.19 1013.52 1013.61 1013.72 1013.70 1013.67 1013.70 1013.89 1014.13 1014.56 1014.83 1015.27 1015.80 1016.02 1016.15 1016.66 1017.04 1017.26 1017.94 1018.54 1018.93 1019.19 1019.30 1019.39 1019.47 1019.50 1019.39 1019.10 1018.40 1018.16 1017.41 1016.33 1016.03 1015.74
1008.45 1009.13 1009.52 1009.85 1010.48 1011.16 1011.74 1011.97 1012.30 1012.74 1012.88 1013.06 1013.25 1013.28 1013.30 1013.52 1013.64 1014.12 1014.54 1015.02 1015.43 1016.03 1016.39 1016.70 1017.21 1017.47 1017.79 1018.14 1018.75 1019.44 1019.55 1019.62 1019.80 1019.91 1019.84 1019.76 1019.41 1018.81 1018.34 1018.00 1017.28 1016.55 1016.06
1007.82 1008.40 1008.91 1009.44 1010.07 1010.60 1011.20 1011.51 1011.96 1012.18 1012.46 1012.70 1012.82 1012.88 1013.12 1013.17 1013.32 1014.04 1014.53 1015.18 1015.81 1016.34 1016.95 1017.37 1017.64 1017.90 1018.28 1018.68 1019.07 1019.44 1019.48 1019.77 1020.14 1020.30 1020.43 1020.25 1020.04 1019.78 1018.98 1018.38 1017.83 1017.03 1016.34
1007.15 1007.88 1008.46 1008.95 1009.54 1009.97 1010.57 1011.12 1011.42 1011.74 1012.08 1012.26 1012.37 1012.62 1012.85 1013.29 1013.69 1014.26 1014.76 1015.48 1016.11 1016.78 1017.29 1017.56 1017.98 1018.44 1018.65 1018.91 1019.40 1019.62 1020.03 1020.23 1020.34 1020.49 1020.63 1020.76 1020.58 1020.22 1019.71 1018.64 1018.14 1017.75 1017.33
1006.66 1007.36 1007.99 1008.51 1008.98 1009.46 1010.10 1010.52 1010.88 1011.28 1011.51 1011.80 1012.06 1012.38 1013.09 1013.84 1014.08 1014.60 1015.16 1015.93 1016.56 1017.30 1017.65 1017.88 1018.36 1019.00 1019.21 1019.45 1019.72 1020.20 1020.47 1020.66 1020.68 1020.73 1020.89 1021.03 1020.87 1020.37 1019.96 1019.40 1018.72 1017.86 1017.39
1006.26 1006.83 1007.34 1007.98 1008.55 1008.99 1009.45 1009.76 1010.30 1010.72 1011.08 1011.43 1011.83 1012.55 1013.24 1014.24 1014.55 1014.94 1015.38 1016.28 1017.15 1017.79 1017.99 1018.29 1018.83 1019.22 1019.48 1019.70 1020.15 1020.60 1020.93 1021.02 1020.97 1020.98 1021.06 1021.10 1020.95 1020.51 1020.13 1019.24 1018.42 1017.51 1017.22
1005.63 1006.14 1006.64 1007.43 1008.04 1008.44 1008.75 1009.21 1009.66 1010.10 1010.56 1011.22 1011.91 1012.58 1013.33 1014.23 1014.91 1015.13 1015.62 1016.38 1017.40 1018.14 1018.60 1018.76 1019.13 1019.37 1019.87 1020.12 1020.32 1020.75 1020.94 1021.09 1021.11 1021.29 1021.27 1020.98 1021.06 1020.75 1020.35 1020.19 1019.82 1018.90 1018.18
1005.03 1005.62 1006.33 1006.87 1007.40 1007.85 1008.46 1008.90 1009.31 1009.88 1010.60 1011.30 1011.95 1012.84 1013.52 1014.11 1014.99 1015.34 1015.78 1016.42 1017.25 1018.08 1018.61 1019.07 1019.44 1019.78 1020.12 1020.28 1020.70 1021.09 1021.10 1021.24 1021.37 1021.49 1021.52 1021.38 1021.28 1020.88 1020.49 1020.34 1020.35 1020.00 1019.44
1004.80 1005.33 1005.91 1006.37 1006.84 1007.52 1008.12 1008.66 1009.20 1009.88 1010.63 1011.42 1012.26 1013.17 1013.99 1014.62 1015.15 1015.58 1016.01 1016.46 1017.22 1017.84 1018.70 1019.14 1019.55 1019.99 1020.28 1020.40 1020.78 1021.19 1021.39 1021.47 1021.66 1021.84 1021.78 1021.76 1021.69 1021.42 1021.15 1020.94 1020.64 1020.28 1020.00
1004.46 1004.98 1005.49 1006.11 1006.55 1006.95 1007.60 1008.37 1009.15 1009.84 1010.54 1011.41 1012.28 1013.10 1014.20 1015.00 1015.62 1015.98 1016.22 1016.90 1017.51 1018.20 1018.78 1019.04 1019.52 1019.94 1020.06 1020.48 1021.10 1021.52 1021.61 1021.86 1021.92 1022.07 1022.44 1022.41 1022.40 1022.29 1021.89 1021.43 1021.02 1020.75 1020.29
1004.10 1004.69 1005.28 1005.79 1006.31 1006.82 1007.43 1008.18 1008.81 1009.46 1010.24 1011.00 1011.95 1012.86 1013.86 1014.85 1015.71 1016.32 1016.88 1017.40 1017.94 1018.53 1019.02 1019.31 1019.73 1020.16 1020.36 1020.90 1021.44 1021.68 1021.64 1021.86 1021.91 1022.09 1022.37 1022.76 1022.73 1022.44 1022.30 1022.28 1021.80 1021.37 1020.86
1004.06 1004.60 1005.14 1005.56 1006.09 1006.78 1007.46 1008.01 1008.18 1008.54 1008.89 1009.88 1011.04 1011.80 1012.95 1014.23 1014.96 1015.48 1016.27 1017.23 1017.84 1018.38 1019.12 1019.58 1020.12 1020.59 1020.88 1021.24 1021.74 1022.12 1022.12 1022.20 1022.30 1022.61 1022.72 1022.88 1022.86 1022.74 1022.96 1022.92 1022.67 1022.26 1021.88
1004.06 1004.52 1004.93 1005.42 1005.98 1006.76 1007.55 1008.28 1008.63 1008.51 1009.22 1009.77 1009.94 1010.61 1012.16 1012.70 1014.24 1015.42 1016.08 1016.87 1017.56 1018.22 1019.17 1019.62 1020.07 1020.56 1020.75 1021.12 1021.60 1022.08 1022.68 1022.63 1022.86 1023.05 1023.07 1023.06 1023.18 1023.26 1023.36 1023.46 1023.29 1023.07 1022.84
1003.94 1004.45 1004.98 1005.47 1006.02 1006.61 1007.36 1007.83 1008.90 1010.01 1009.42 1010.19 1010.72 1011.11 1011.47 1012.78 1014.04 1015.26 1016.09 1016.81 1017.59 1018.14 1018.82 1019.37 1019.52 1020.16 1020.59 1020.94 1021.38 1021.55 1022.06 1022.87 1022.89 1023.16 1023.40 1023.66 1023.69 1023.68 1023.72 1024.00 1024.14 1023.94 1023.77
1004.45 1004.75 1005.08 1005.66 1006.19 1006.55 1006.94 1007.62 1008.17 1009.06 1009.82 1010.44 1011.70 1012.28 1012.14 1012.52 1014.01 1015.11 1016.15 1017.07 1018.13 1018.18 1018.40 1018.86 1019.23 1019.68 1020.26 1020.70 1021.20 1021.55 1022.19 1022.69 1023.06 1023.30 1023.39 1023.58 1023.75 1023.82 1023.99 1024.26 1024.49 1024.60 1024.65
1004.82 1005.29 1005.37 1005.69 1006.16 1006.52 1006.94 1007.50 1008.02 1008.52 1009.14 1010.18 1011.50 1012.48 1013.66 1013.84 1013.97 1014.67 1015.70 1016.02 1016.67 1017.32 1017.74 1018.46 1018.60 1019.23 1019.84 1020.40 1020.93 1021.51 1021.96 1022.45 1022.85 1023.34 1023.44 1023.65 1023.94 1024.07 1024.30 1024.69 1025.03 1025.17 1025.04
1005.03 1005.18 1005.45 1005.79 1006.09 1006.32 1006.65 1007.10 1007.68 1008.06 1008.78 1009.78 1010.58 1011.61 1013.38 1014.44 1015.10 1015.44 1015.23 1015.74 1016.14 1016.62 1017.10 1017.74 1018.26 1018.78 1019.34 1019.92 1020.46 1021.13 1021.81 1022.14 1022.74 1023.12 1023.46 1023.67 1023.95 1024.18 1024.56 1024.69 1025.23 1025.52 1025.51
1005.32 1005.43 1005.66 1005.85 1005.95 1006.13 1006.34 1006.46 1007.11 1007.86 1008.60 1009.23 1009.95 1010.66 1011.54 1012.58 1013.54 1014.19 1014.53 1014.98 1015.30 1015.98 1016.53 1017.15 1017.80 1018.46 1019.11 1019.59 1020.24 1020.98 1021.43 1021.98 1022.58 1022.91 1023.32 1023.83 1024.04 1024.16 1024.62 1024.86 1025.21 1025.86 1026.11
1005.87 1005.61 1005.61 1005.75 1005.90 1005.96 1006.20 1006.51 1006.46 1007.11 1008.00 1008.85 1009.58 1010.74 1011.21 1011.44 1012.64 1013.47 1013.85 1014.25 1014.65 1015.13 1015.61 1016.32 1017.09 1017.66 1018.40 1019.16 1019.74 1020.32 1020.95 1021.45 1022.05 1022.60 1023.08 1023.46 1023.89 1024.26 1024.43 1024.59 1025.11 1025.63 1026.19
1006.72 1005.90 1005.65 1005.67 1005.84 1005.88 1006.04 1006.27 1006.72 1007.06 1007.24 1008.09 1009.11 1010.16 1010.93 1011.28 1011.86 1012.42 1013.06 1013.54 1014.20 1014.76 1015.39 1015.85 1016.52 1017.27 1017.90 1018.48 1019.10 1019.62 1020.17 1020.68 1021.23 1021.94 1022.52 1023.16 1023.70 1024.20 1024.36 1024.66 1025.10 1025.34 1026.00
1007.50 1006.89 1006.30 1005.54 1005.58 1005.67 1005.68 1005.87 1006.44 1006.92 1007.11 1007.59 1008.29 1009.10 1009.72 1010.24 1011.11 1011.65 1012.27 1012.96 1013.66 1014.18 1014.84 1015.23 1015.57 1015.99 1017.01 1017.81 1018.44 1018.91 1019.52 1020.12 1020.77 1021.40 1021.96 1022.56 1023.14 1023.82 1024.44 1024.64 1024.80 1025.24 1025.50
1007.78 1007.29 1006.79 1006.19 1005.52 1005.41 1005.46 1005.64 1006.03 1006.54 1006.92 1007.40 1007.80 1008.45 1009.06 1009.28 1010.24 1010.98 1011.82 1012.37 1012.91 1013.38 1013.98 1014.42 1014.87 1015.46 1015.81 1016.61 1017.40 1018.10 1018.82 1019.61 1019.95 1020.74 1021.63 1022.08 1022.59 1023.10 1023.63 1024.19 1024.56 1025.13 1025.62
1008.76 1008.22 1007.74 1006.84 1006.12 1005.55 1005.33 1005.35 1005.58 1006.05 1006.52 1006.88 1007.28 1007.80 1008.26 1008.72 1009.38 1010.16 1010.92 1011.73 1012.46 1013.14 1013.77 1013.96 1013.84 1014.46 1015.30 1015.79 1016.44 1017.17 1018.33 1019.34 1019.96 1020.24 1020.82 1021.60 1022.13 1022.73 1023.48 1023.65 1023.93 1024.54 1025.20
Wind_Speed
14 12 11 10 9 8 9 8 8 6 6 7 8 5 6 6 7 6 6 4 6 6 4 4 1 3 3 4 4 4 3 2 4 2 1 2 3 7 8 7 6 6 7
14 13 13 10 9 9 9 8 8 8 6 8 4 6 7 7 7 5 4 4 6 7 5 2 4 4 6 5 5 6 5 4 4 4 2 3 3 6 7 8 7 5 5
12 13 11 10 10 10 10 9 7 7 7 5 6 7 7 8 6 4 2 5 4 4 3 3 6 6 5 6 6 7 6 6 5 3 3 2 3 4 8 6 8 6 5
12 12 12 12 12 11 10 8 8 7 6 6 6 7 7 6 4 2 5 5 6 5 5 6 6 5 8 8 7 7 5 6 5 4 4 3 2 4 6 8 9 6 5
12 12 13 12 10 8 7 8 6 6 6 6 5 6 6 4 3 6 7 7 7 8 7 7 6 9 14 10 7 5 6 5 4 5 4 3 5 7 10 8 7 9 2
13 14 11 10 9 10 8 8 6 7 6 5 6 7 4 3 11 11 9 7 8 9 8 8 7 12 12 13 13 9 6 5 3 2 2 4 6 7 7 9 8 7 5
13 11 10 10 10 10 8 7 8 7 5 6 6 4 2 4 13 13 13 9 9 8 8 8 8 7 10 9 10 10 9 9 5 3 4 5 5 8 8 10 10 6 3
12 11 10 10 10 8 9 9 7 6 7 5 4 4 7 5 14 14 15 9 9 7 7 7 8 7 6 7 6 6 5 5 4 5 6 4 4 7 7 6 8 7 2
11 11 11 10 9 9 10 9 6 7 5 5 5 8 10 9 13 15 13 10 9 7 6 6 7 6 8 9 7 5 4 4 6 8 8 7 8 11 12 8 11 10 6
12 12 11 10 10 11 10 9 6 5 5 6 8 8 10 12 11 13 12 9 9 6 4 5 8 7 8 8 7 4 4 3 5 4 3 5 6 7 11 9 8 10 11
10 9 10 10 10 8 7 5 7 7 8 8 9 8 9 12 11 13 12 9 8 7 6 5 4 8 9 8 8 3 2 5 6 4 2 5 6 7 7 6 6 7 10
7 8 8 9 8 7 9 6 8 9 10 10 10 8 6 8 8 11 13 9 11 9 7 5 5 8 8 9 6 6 7 7 5 5 5 4 5 7 8 7 7 7 6
7 8 8 8 8 9 10 9 8 9 9 9 8 8 7 5 5 7 13 14 10 6 5 8 11 9 9 8 8 8 6 5 5 6 4 3 3 4 7 5 6 7 6
7 7 6 8 8 8 6 8 8 9 9 9 9 8 8 7 6 5 7 7 11 9 11 7 8 8 8 9 7 4 4 4 5 5 4 2 3 5 8 7 5 5 7
5 5 6 6 8 8 5 5 9 10 11 12 10 11 12 9 9 11 12 8 8 9 9 5 5 4 5 5 5 4 4 4 5 3 5 4 5 5 7 7 6 6 8
6 6 7 6 6 6 6 5 13 6 8 3 13 14 8 13 19 17 15 14 16 16 6 6 5 5 6 7 6 5 3 5 4 4 4 5 5 5 6 7 7 8 8
5 5 5 5 6 7 7 8 7 6 14 11 8 13 17 18 20 19 16 17 18 12 5 6 7 7 6 6 6 6 6 3 5 4 5 5 5 5 5 7 7 8 9
3 7 6 5 5 6 6 7 7 8 8 7 8 4 11 22 21 19 18 15 8 4 6 8 8 7 7 7 6 4 5 6 4 5 5 4 4 5 5 5 6 7 7
4 3 5 5 5 6 5 6 6 7 8 8 6 8 8 8 19 23 21 10 11 9 7 7 7 7 7 7 6 5 7 7 7 6 5 5 5 6 6 6 6 6 7
2 6 6 5 6 7 6 6 6 7 8 9 8 9 9 7 10 10 10 8 9 8 8 9 8 7 7 7 6 6 6 7 7 6 5 5 5 7 7 8 6 7 8
1 3 4 4 6 6 7 8 8 8 7 9 9 10 19 13 11 11 11 9 10 9 9 9 9 8 7 7 7 7 7 8 7 7 6 6 6 7 6 6 7 5 5
6 2 3 4 3 5 6 6 8 9 8 8 7 8 19 10 11 11 11 10 9 9 9 9 8 8 8 8 8 9 9 9 8 8 7 7 7 6 6 8 8 7 5
8 6 3 4 4 5 3 4 5 6 8 9 9 9 12 9 10 12 12 10 9 8 7 8 8 8 7 8 9 9 10 9 9 8 9 9 8 7 7 7 7 8 6
8 8 8 3 4 5 6 6 6 7 8 9 9 10 12 11 10 12 11 9 8 8 8 8 9 13 11 9 8 9 8 8 8 10 12 9 9 9 7 7 8 8 8
10 9 8 8 4 4 5 5 6 7 7 7 8 8 10 11 10 10 9 9 9 9 10 10 9 13 16 17 15 16 12 11 12 11 9 11 12 13 11 8 9 8 8
10 10 9 9 8 4 6 6 8 8 8 8 8 9 10 11 11 11 10 10 9 9 10 9 11 15 16 15 17 18 14 11 10 13 11 9 10 10 9 10 14 10 12
Wind_Direction
185 190 196 204 197 193 207 214 211 212 210 234 249 265 263 272 282 278 278 139 164 156 188 233 360 93 74 60 70 65 54 68 97 48 325 304 302 348 355 355 354 7 14
188 183 196 195 183 194 208 210 206 219 209 231 241 253 264 263 264 265 297 125 152 171 200 167 110 102 72 65 60 63 68 64 108 83 305 319 337 356 335 342 346 352 353
175 178 185 189 183 201 209 211 203 211 219 214 223 242 259 260 272 274 76 128 133 148 150 133 127 106 91 79 76 75 73 75 71 102 18 323 311 339 346 342 338 322 337
173 178 186 193 197 201 208 205 200 202 205 216 221 242 250 258 251 207 133 128 111 106 111 113 120 123 114 108 92 94 95 85 71 61 38 357 325 334 335 340 344 339 343
170 178 194 196 196 190 193 200 196 192 215 219 231 241 253 254 199 144 138 124 113 97 86 87 90 106 108 112 121 126 104 85 68 52 35 5 349 346 355 336 322 330 329
172 189 189 184 182 190 193 200 179 211 209 211 230 242 261 249 143 134 129 117 104 107 106 95 98 99 106 113 118 116 103 103 78 57 18 10 358 339 334 339 342 347 348
178 186 182 178 189 189 190 173 197 204 191 215 231 230 183 108 130 129 119 119 118 119 122 118 111 110 110 115 103 88 72 74 83 101 65 29 360 347 328 344 352 341 323
179 177 177 180 192 171 177 188 185 179 199 205 211 157 120 122 129 124 116 113 113 111 124 126 122 121 124 115 104 83 69 68 75 83 81 73 30 354 358 326 327 307 266
177 180 178 180 183 174 189 192 174 176 178 175 153 137 132 139 137 132 123 117 112 112 120 125 124 131 144 133 106 102 79 62 101 106 90 62 30 18 19 356 9 10 16
176 184 170 175 183 190 194 179 167 166 159 138 133 134 137 139 154 139 128 128 124 127 114 119 135 149 148 138 123 129 104 99 132 119 19 7 14 359 20 29 9 16 8
171 160 163 174 189 191 160 158 157 140 131 133 124 127 137 151 158 140 132 140 139 139 140 139 141 147 154 129 114 132 112 128 118 107 54 24 16 22 10 2 16 16 14
144 156 169 179 178 165 164 151 146 141 137 135 129 113 117 141 144 145 131 128 145 140 153 143 135 137 132 123 124 125 119 107 106 102 81 42 16 21 13 11 8 7 12
158 175 177 170 174 165 161 158 149 148 146 144 146 139 139 131 123 118 128 127 124 112 139 132 122 109 109 103 120 131 126 109 109 94 79 35 13 354 4 11 12 7 13
170 177 164 162 162 157 152 159 156 155 154 157 153 150 145 149 147 143 134 120 110 111 122 115 102 93 84 105 110 103 107 109 113 114 100 57 11 27 30 14 26 7 28
143 141 145 147 162 166 137 168 172 179 171 163 170 162 154 168 179 161 153 153 147 142 124 110 113 112 119 115 103 111 115 119 109 112 109 95 71 58 45 27 31 29 45
129 139 160 160 155 131 135 107 37 108 144 180 155 159 171 149 146 153 145 139 135 145 125 145 138 151 151 146 140 130 127 129 116 122 115 103 88 71 62 48 48 43 42
111 131 141 143 141 149 159 156 140 40 76 68 131 147 148 151 148 150 148 140 147 138 136 165 151 160 162 157 154 154 155 165 132 130 124 112 102 89 70 57 48 49 55
114 142 145 142 148 154 163 173 159 160 164 129 48 87 152 146 148 144 136 124 155 118 156 171 162 166 163 160 160 155 142 149 156 142 132 128 114 110 103 86 73 69 58
127 144 140 137 150 158 161 170 168 166 152 147 129 79 63 80 146 147 160 165 173 178 163 177 167 168 163 167 162 163 156 166 167 161 152 145 133 116 108 105 92 78 85
131 164 156 166 161 165 167 171 175 169 155 160 169 158 137 125 162 171 179 170 176 182 173 179 175 169 163 166 163 158 162 161 165 163 158 147 146 128 120 122 120 106 96
358 164 188 181 180 187 193 181 176 175 172 175 174 165 165 168 174 179 181 181 182 181 181 178 177 173 170 167 158 163 171 168 173 164 159 152 153 140 133 129 130 126 124
340 257 186 205 202 196 206 216 177 171 172 177 166 160 163 169 170 183 187 188 188 184 182 173 174 175 177 173 168 169 177 175 171 173 167 161 156 148 145 141 138 137 153
346 339 230 218 207 198 193 193 195 201 175 178 163 159 172 175 178 181 189 188 184 176 175 172 169 171 173 171 175 176 178 181 177 168 165 168 163 163 164 154 150 142 151
342 348 336 265 217 208 202 191 200 202 188 180 172 165 176 175 180 185 187 183 182 178 177 179 180 176 175 175 179 179 184 171 167 175 170 169 171 167 169 167 163 155 142
352 346 343 329 305 210 204 185 193 207 189 178 175 171 181 174 175 180 183 183 186 180 184 184 182 187 179 181 184 185 177 163 168 163 174 177 174 175 178 184 173 168 156
348 351 342 336 331 301 221 195 196 188 198 183 177 177 178 183 177 180 183 180 182 187 190 196 187 187 187 187 188 181 162 167 173 170 168 175 176 178 186 185 175 165 161